Flag for U.S.A. Weather past 2 weeks in Chicago, Illinois, U.S.A.

Now
28 °F

Light freezing rain. Ice fog.


Feels Like: 22 °F
Forecast: 26 / 30 °F
Wind: 6 mph from South

Location: Chicago Midway Airport

Current Time: Jan 26, 2015 at 9:46:36 PM

Latest Report: Jan 26, 2015 at 8:53 PM


Visibility: 2 mi

Pressure: 29.95 "Hg

Humidity: 85%

Dew point: 24 °F

Location of ChicagoLocation

Historic Weather in Chicago — Graph

°F

Chicago temperature yesterday

Maximum temperature yesterday: 37 °F (at 5:53 AM)
Minimum temperature yesterday: 26 °F (at 11:53 PM)
Average temperature yesterday: 32 °F

Past Weeks' High & Low Weather Summary

 TemperatureHumidityPressure
High45 °F (Jan 24, 12:53 PM)93% (Jan 19, 7:53 AM)30.78 "Hg (Jan 19, 7:53 AM)
Low6 °F (Jan 14, 6:53 AM)57% (Jan 18, 2:53 PM)29.63 "Hg (Jan 17, 2:53 PM)
Average30 °F76%30.11 "Hg
* Reported Jan 11 9:00 PM — Jan 26 8:02 PM, Chicago, Weather by CustomWeather, © 2014

Note: Actual official high and low records may vary slightly from our data, if they occured in-between our weather recording intervals... More about our weather records

Advertising

Chicago weather history for previous 24 hours

 ConditionsComfort  
Time TempWeatherWind HumidityBarometerVisibility
8:02 PM
Jan 26
27 °FLight freezing rain. Ice fog.6 mph89%29.91 "Hg2 mi
7:53 PM28 °FLight freezing rain. Ice fog.6 mph85%29.95 "Hg2 mi
6:53 PM27 °FDrizzle. Ice fog.6 mph89%29.96 "Hg2 mi
5:53 PM27 °FDrizzle. Ice fog.6 mph81%29.94 "Hg2 mi
4:53 PM28 °FLight snow. Mostly cloudy.6 mph75%29.93 "Hg5 mi
3:53 PM28 °FLight snow. Mostly cloudy.7 mph75%29.91 "Hg7 mi
2:53 PM28 °FLight snow. Cloudy.6 mph78%29.91 "Hg2 mi
1:53 PM29 °FLight snow. Overcast.7 mph69%29.92 "Hg10 mi
12:53 PM28 °FOvercast.9 mph69%29.93 "Hg10 mi
11:53 AM27 °FMostly cloudy.6 mph72%29.95 "Hg10 mi
10:53 AM26 °FMostly cloudy.5 mph71%29.98 "Hg10 mi
9:53 AM25 °FCloudy.3 mph75%30.00 "Hg10 mi
8:53 AM23 °FBroken clouds.5 mph81%30.00 "Hg10 mi
7:53 AM21 °FPartly sunny.7 mph81%30.02 "Hg10 mi
6:53 AM23 °FPassing clouds.No wind74%30.00 "Hg10 mi
5:53 AM23 °FPassing clouds.3 mph74%30.00 "Hg10 mi
4:53 AM23 °FPassing clouds.5 mph74%30.01 "Hg10 mi
3:53 AM22 °FPassing clouds.6 mph75%30.01 "Hg10 mi
2:53 AM25 °FPassing clouds.6 mph69%30.01 "Hg10 mi
1:53 AM25 °FPassing clouds.7 mph72%30.03 "Hg10 mi
12:53 AM25 °FPassing clouds.12 mph72%30.02 "Hg10 mi
11:53 PM
Jan 25
26 °FPassing clouds.14 mph69%30.01 "Hg10 mi
10:53 PM27 °FOvercast.15 mph69%30.02 "Hg10 mi
9:53 PM27 °FPassing clouds.16 mph69%30.02 "Hg10 mi
Weather by CustomWeather, © 2014

See weather overviewHow to use our weather pages